Location: Big Creek Canyon
(37.2102°N, 119.3301°W)
Time: 16:41:45
(UTC+00:00)

Daily predictions for brighter satellites

Satellite Brightness Start Highest point End
(mag) Time Altitude Azimuth Time Altitude Azimuth Time Altitude Azimuth
Cosmos 1980 Rocket 3.6 12:20:29 30° NNE 12:20:29 30° NNE 12:23:14 10° NNE
ATLAS 2AS CENTAUR R/B 3.1 12:29:51 38° SSW 12:33:19 78° ESE 12:41:21 10° NE
Cosmos 2327 Rocket 4.3 12:46:13 76° WSW 12:46:13 76° WSW 12:52:14 10° S
USA 238 DEB 3.8 12:44:37 42° NNW 12:47:27 81° ENE 12:54:55 10° SE
USA 238 3.8 12:44:42 41° NNW 12:47:33 81° ENE 12:55:02 10° SE
Cosmos 44 Rocket 4.5 12:50:22 31° S 12:50:22 31° S 12:52:56 10° SSE
Cosmos 1606 Rocket 4.0 12:49:29 10° S 12:53:51 59° E 12:58:12 10° NNE
Cosmos 923 Rocket 4.0 12:52:04 31° S 12:54:36 79° ESE 12:59:55 10° NNE
COSMO-SKYMED 1 3.4 12:53:22 10° SSE 12:57:33 50° ENE 13:00:09 22° N
Cosmos 2322 Rocket 3.0 13:03:09 10° S 13:08:35 52° ESE 13:14:06 10° NNE
Cosmos 2228 3.1 13:04:19 10° S 13:08:42 80° E 13:13:07 10° N
STARLINK 1044 3.8 13:09:50 54° NE 13:09:50 54° NE 13:12:48 10° NE
Meteor 1-21 Rocket 4.2 13:05:01 10° N 13:10:57 80° W 13:16:52 10° S
CZ-3 Stage 3 3.8 13:11:01 30° SW 13:11:55 31° SW 13:15:10 10° SSE
METEOR-M 4.2 13:07:10 10° NNE 13:12:32 76° ESE 13:17:52 10° S
Transit 2A Rocket 4.3 13:12:35 65° SW 13:13:10 83° WNW 13:17:30 10° NNE
CZ-4B DEB 4.5 13:08:00 10° NNE 13:13:33 69° ESE 13:19:01 10° S
Meteor 2-10 4.0 13:09:37 10° S 13:15:11 89° WNW 13:20:35 10° N
Cosmos 2263 Rocket 2.7 13:13:22 11° NNW 13:18:40 57° ENE 13:24:14 10° SE
ALOS 2.1 13:14:00 10° NNE 13:18:41 88° WNW 13:23:21 10° SSW
STARLINK 1029 4.5 13:20:11 27° NNE 13:20:11 27° NNE 13:21:52 10° NE
SKYMED 3 4.4 13:17:02 10° SSE 13:21:22 85° WSW 13:24:17 21° NNW
RESURS DK-1 3.9 13:19:41 10° S 13:23:29 37° ESE 13:27:18 10° NE
Gbstr 26 Del rocket 4.2 13:20:13 30° WSW 13:23:53 71° NW 13:31:47 10° NE
USA 32 4.0 13:18:46 10° N 13:24:02 84° E 13:29:16 10° S
STARLINK 1031 3.4 13:25:24 58° NNW 13:25:24 58° NNW 13:28:50 10° NE
Cosmos 2154 Rocket 4.3 13:23:26 26° NW 13:26:13 41° W 13:31:56 10° SSW
STARLINK 1035 3.6 13:27:18 46° N 13:27:18 46° N 13:30:11 10° NE
STARLINK 1024 3.4 13:28:21 55° NNW 13:28:21 55° NNW 13:31:54 10° NE
Cosmos 1328 4.1 13:25:31 10° N 13:29:28 67° E 13:33:23 10° SSE
STARLINK 1027 3.7 13:30:42 41° NNW 13:30:42 41° NNW 13:33:36 10° NE
Cosmos 158 Rocket 3.8 13:27:06 10° SSW 13:31:57 83° ESE 13:36:53 10° NNE
Lacrosse 5 1.7 13:28:54 20° SW 13:32:30 83° NW 13:37:37 10° NE
COSMOS 2455 3.7 13:32:36 28° NW 13:32:45 28° NW 13:37:53 10° N
STARLINK 1032 3.5 13:34:19 48° NW 13:34:29 48° NW 13:38:04 10° NE
STARLINK 1011 3.6 13:37:16 44° NW 13:37:33 45° NW 13:41:07 10° NE
OE (NEXTSAT) 4.5 13:37:19 49° NW 13:37:45 53° NNW 13:41:12 10° NE
USA 116 4.1 13:33:25 10° SSE 13:38:12 82° ENE 13:42:27 10° N
Cosmos 1908 3.1 13:34:53 10° SSW 13:38:46 74° W 13:42:42 10° N
NOSS 3-2 (C) 4.1 13:33:13 14° NW 13:40:08 79° WSW 13:48:42 10° SSE
STARLINK 1036 3.7 13:40:17 40° WNW 13:40:43 43° NW 13:44:16 10° NE
ATLAS 3B R/B 3.2 13:35:23 10° NNW 13:42:04 60° NE 13:48:56 10° SE
Cosmos 1680 Rocket 3.7 13:37:45 10° SW 13:42:52 49° WNW 13:48:02 10° N
Genesis I 3.7 13:41:44 17° NNW 13:44:34 57° ENE 13:48:18 10° SE
SKYMED 2 3.9 13:41:26 10° S 13:45:34 43° W 13:48:43 16° NNW
STARLINK 1047 3.9 13:46:19 34° WNW 13:47:01 38° NW 13:50:29 10° NNE
STARLINK 1037 3.9 13:47:41 32° WNW 13:48:27 37° NW 13:51:55 10° NNE
Cosmos 1953 Rocket 3.6 13:44:16 10° NNW 13:48:35 56° W 13:52:51 10° S
Cosmos 2366 rocket 4.0 13:42:53 10° N 13:49:17 88° W 13:55:37 10° S
SL-16 R/B 2.2 13:44:05 10° SW 13:49:39 58° WNW 13:55:16 10° NNE
NOSS 3-4 (A) 3.8 13:45:33 17° WSW 13:49:42 41° NW 13:55:36 10° NNE
NOSS 3-4 (C) 3.8 13:45:33 17° WSW 13:49:48 42° NW 13:55:43 10° NNE
USA 215 3.6 13:44:07 10° ESE 13:50:32 65° NE 13:56:57 10° NW
ADEOS Rocket 3.6 13:45:24 10° SSE 13:50:40 52° ENE 13:56:09 10° N
SL-4 R/B 2.3 13:50:13 30° W 13:51:10 37° SW 13:54:21 10° SSE
STARLINK 1059 4.0 13:50:44 30° WNW 13:51:39 34° NW 13:55:04 10° NNE
Cosmos 1371 Rocket 4.3 13:47:23 10° NNW 13:52:42 72° ENE 13:58:01 10° SSE
Cosmos 1758 Rocket 4.4 13:51:43 24° WNW 13:52:57 28° W 13:56:42 10° SSW
NOAA 6 4.0 13:48:17 10° N 13:53:28 74° WNW 13:58:37 10° SSW
STARLINK 1057 4.1 13:53:48 27° WNW 13:54:51 33° NW 13:58:14 10° NNE
FENGYUN 3A 3.9 13:49:55 10° N 13:55:01 44° WNW 14:00:06 10° SW
Cosmos 2360 Rocket 2.7 13:49:34 10° S 13:55:10 65° ESE 14:00:47 10° NNE
STARLINK 1046 4.4 13:52:38 10° SSW 13:56:40 52° SE 14:00:41 10° ENE
STARLINK 1052 4.2 13:56:53 25° WNW 13:58:04 31° NW 14:01:24 10° NNE
Abrixas rocket 2.0 13:57:14 26° NW 13:58:44 74° NE 14:01:44 10° ESE
Cosmos 2112 Rocket 4.4 13:55:46 10° SW 14:00:45 39° WNW 14:05:46 10° N
STARLINK 1068 4.3 13:59:57 23° WNW 14:01:17 29° NW 14:04:34 10° NNE
STARLINK 1039 4.2 13:57:32 10° SSW 14:01:36 58° SE 14:05:40 10° NE
Cosmos 1980 Rocket 3.8 14:02:18 15° NW 14:02:18 15° NW 14:05:17 10° NNW
CENTAUR R/B 3.2 13:55:02 10° NW 14:03:19 74° WSW 14:12:02 10° SSE
Cosmos 1703 3.6 14:00:11 10° NNW 14:03:55 43° W 14:07:38 10° SSW
DMSP B5D1-3 4.4 13:59:57 10° S 14:05:02 73° WSW 14:10:09 10° NNW
CZ-4B R/B 3.2 14:00:24 10° N 14:05:51 64° WNW 14:11:10 10° SSW
STARLINK 1045 4.0 14:02:28 10° SW 14:06:33 65° SE 14:10:40 10° NE
STARLINK 1060 4.4 14:06:08 19° WNW 14:07:44 26° NNW 14:10:56 10° NNE
Cosmos 2237 4.3 14:03:16 10° SSW 14:08:58 82° ESE 14:14:42 10° NNE
STARLINK 1050 3.8 14:07:29 10° SW 14:11:37 76° SE 14:15:45 10° NE
Okean O Rocket 2.0 14:10:00 10° N 14:14:11 41° WNW 14:18:18 10° SW
Cosmos 1340 Rocket 3.9 14:10:26 10° S 14:14:11 47° E 14:17:57 10° NNE
SMAP 3.2 14:11:19 10° NNE 14:16:00 79° ESE 14:20:38 10° S
STARLINK 1055 3.7 14:12:25 10° SW 14:16:33 84° SE 14:20:43 10° NE
Okean-O 4.5 14:14:39 10° NNE 14:18:44 36° E 14:22:49 10° SSE
Cosmos 2058 Rocket 3.9 14:16:32 10° SW 14:20:17 27° WNW 14:24:03 10° NNW
Cosmos 1624 Rocket 4.0 14:15:39 10° NNW 14:20:50 72° WSW 14:25:59 10° S
STARLINK 1022 3.6 14:17:25 10° SW 14:21:34 87° NW 14:25:43 10° NE
Helios 1A Rocket 3.4 14:19:46 10° N 14:23:39 40° WNW 14:27:31 10° SW
ATLAS 2AS CENTAUR R/B 3.9 14:18:30 10° W 14:25:08 28° NW 14:31:46 10° NNE
STARLINK 1042 3.6 14:22:24 10° SW 14:26:33 80° NW 14:30:42 10° NE
CORIOLIS 4.4 14:23:03 10° NNE 14:28:26 78° ESE 14:33:47 10° S
STARLINK 1056 3.6 14:27:22 10° SW 14:31:30 72° NW 14:35:38 10° NE
COSMO-SKYMED 1 4.4 14:32:09 10° WSW 14:33:57 12° W 14:35:47 10° WNW
Cosmos 2056 Rocket 3.8 14:30:59 10° NNW 14:36:15 53° WSW 14:41:29 10° S
STARLINK 1054 3.6 14:32:22 10° WSW 14:36:29 65° NW 14:40:36 10° NE
Cosmos 1174 4.4 14:33:21 10° SSW 14:37:43 62° ESE 14:41:16 10° NE
Milstar 3 Cent rocket 4.2 14:25:42 10° WSW 14:38:28 48° S 14:44:54 10° ESE
CZ-3 R/B 3.1 14:41:18 10° W 14:52:49 31° SW 14:57:19 10° SSE
